Radiation Dose at Monitoring Post of Fukushima Daini Nuclear Power Station
Date,Time,MP-1(microSv/h),MP-2(microSv/h),MP-3(microSv/h),MP-4(microSv/h),MP-5(microSv/h),MP-6(microSv/h),MP-7(microSv/h),Wind Direction,Wind Velocity(m/s),Rain
2015/04/26,00:00,0.544,0.331,0.570,0.531,0.556,0.253,0.226,south,2.7,No
2015/04/26,00:10,0.544,0.330,0.571,0.532,0.556,0.254,0.226,south,2.5,No
2015/04/26,00:20,0.542,0.331,0.574,0.533,0.555,0.252,0.227,south-southwest,3.2,No
2015/04/26,00:30,0.545,0.330,0.573,0.534,0.556,0.252,0.226,southwest,3.1,No
2015/04/26,00:40,0.545,0.330,0.572,0.531,0.560,0.253,0.226,south-southwest,2.8,No
2015/04/26,00:50,0.544,0.331,0.574,0.534,0.556,0.252,0.227,south-southwest,2.8,No
2015/04/26,01:00,0.542,0.331,0.572,0.532,0.555,0.251,0.226,south-southwest,1.6,No
2015/04/26,01:10,0.544,0.331,0.572,0.532,0.558,0.253,0.226,southwest,1.4,No
2015/04/26,01:20,0.543,0.330,0.576,0.531,0.555,0.253,0.226,south-southwest,1.5,No
2015/04/26,01:30,0.542,0.331,0.573,0.533,0.555,0.253,0.226,south-southwest,1.8,No
2015/04/26,01:40,0.543,0.331,0.570,0.532,0.557,0.253,0.227,south-southwest,2.2,No
2015/04/26,01:50,0.544,0.331,0.572,0.533,0.555,0.253,0.227,south-southwest,2.2,No
2015/04/26,02:00,0.545,0.330,0.572,0.534,0.556,0.253,0.227,south,1.7,No
2015/04/26,02:10,0.545,0.332,0.572,0.531,0.556,0.252,0.227,south-southeast,1.3,No
2015/04/26,02:20,0.543,0.330,0.574,0.532,0.556,0.254,0.226,south-southwest,1.6,No
2015/04/26,02:30,0.544,0.330,0.573,0.533,0.554,0.254,0.227,south-southwest,1.1,No
2015/04/26,02:40,0.542,0.331,0.571,0.534,0.557,0.253,0.225,south-southwest,1.2,No
2015/04/26,02:50,0.542,0.332,0.573,0.532,0.555,0.252,0.226,south-southwest,1.0,No
2015/04/26,03:00,0.545,0.331,0.572,0.533,0.556,0.253,0.226,south-southwest,1.2,No
2015/04/26,03:10,0.543,0.330,0.571,0.533,0.555,0.253,0.227,southwest,2.2,No
2015/04/26,03:20,0.541,0.331,0.575,0.530,0.558,0.251,0.226,southwest,3.1,No
2015/04/26,03:30,0.545,0.330,0.573,0.532,0.555,0.252,0.226,southwest,2.1,No
2015/04/26,03:40,0.542,0.330,0.573,0.534,0.557,0.253,0.226,west-southwest,0.9,No
2015/04/26,03:50,0.543,0.330,0.574,0.532,0.556,0.253,0.226,-,CALM,No
2015/04/26,04:00,0.546,0.332,0.575,0.532,0.555,0.253,0.227,northwest,0.5,No
2015/04/26,04:10,0.544,0.330,0.570,0.535,0.556,0.253,0.226,west,0.7,No
2015/04/26,04:20,0.542,0.331,0.574,0.532,0.555,0.253,0.226,southwest,2.1,No
2015/04/26,04:30,0.544,0.331,0.575,0.531,0.557,0.253,0.225,southwest,1.1,No
2015/04/26,04:40,0.541,0.331,0.572,0.534,0.557,0.252,0.226,southwest,0.9,No
2015/04/26,04:50,0.542,0.329,0.572,0.530,0.555,0.252,0.226,southwest,1.6,No
2015/04/26,05:00,0.544,0.330,0.573,0.530,0.554,0.253,0.226,south-southwest,2.3,No
2015/04/26,05:10,0.542,0.332,0.571,0.533,0.556,0.253,0.226,southwest,3.1,No
2015/04/26,05:20,0.542,0.330,0.572,0.532,0.555,0.254,0.226,south-southwest,2.2,No
2015/04/26,05:30,0.545,0.331,0.574,0.531,0.556,0.252,0.226,southwest,2.2,No
2015/04/26,05:40,0.543,0.330,0.572,0.533,0.554,0.255,0.226,west-southwest,2.5,No
2015/04/26,05:50,0.543,0.329,0.573,0.532,0.555,0.253,0.225,southwest,3.0,No
2015/04/26,06:00,0.544,0.329,0.573,0.531,0.557,0.252,0.226,southwest,3.1,No
2015/04/26,06:10,0.543,0.331,0.572,0.531,0.555,0.254,0.225,southwest,3.5,No
2015/04/26,06:20,0.543,0.330,0.569,0.533,0.558,0.252,0.224,southwest,3.9,No
2015/04/26,06:30,0.542,0.330,0.573,0.529,0.555,0.253,0.225,southwest,4.7,No
2015/04/26,06:40,0.541,0.332,0.571,0.533,0.553,0.255,0.224,southwest,5.7,No
2015/04/26,06:50,0.545,0.330,0.574,0.530,0.555,0.252,0.225,southwest,4.6,No
2015/04/26,07:00,0.543,0.330,0.570,0.532,0.554,0.253,0.225,southwest,3.3,No
2015/04/26,07:10,0.542,0.331,0.572,0.530,0.558,0.253,0.226,south-southwest,3.5,No
2015/04/26,07:20,0.544,0.329,0.568,0.531,0.556,0.254,0.224,south-southwest,3.9,No
2015/04/26,07:30,0.540,0.331,0.572,0.527,0.559,0.253,0.225,south-southwest,3.9,No
2015/04/26,07:40,0.544,0.330,0.568,0.533,0.558,0.253,0.226,south-southwest,3.7,No
2015/04/26,07:50,0.539,0.327,0.574,0.527,0.557,0.252,0.224,south-southwest,4.4,No
2015/04/26,08:00,0.543,0.330,0.570,0.525,0.558,0.252,0.225,south,4.7,No
2015/04/26,08:10,0.538,0.329,0.574,0.532,0.555,0.253,0.224,south-southwest,4.5,No
2015/04/26,08:20,0.544,0.327,0.570,0.528,0.554,0.252,0.223,south,5.6,No
2015/04/26,08:30,0.538,0.331,0.575,0.526,0.556,0.253,0.227,south,6.8,No
2015/04/26,08:40,0.543,0.328,0.570,0.533,0.553,0.252,0.226,south,7.8,No
2015/04/26,08:50,0.542,0.331,0.576,0.531,0.557,0.252,0.224,south,8.1,No
2015/04/26,09:00,0.539,0.331,0.570,0.525,0.556,0.252,0.228,south,8.1,No
2015/04/26,09:10,0.544,0.328,0.574,0.530,0.553,0.252,0.226,south,9.7,No
2015/04/26,09:20,0.538,0.331,0.573,0.536,0.555,0.253,0.225,south,9.9,No
2015/04/26,09:30,0.539,0.330,0.572,0.529,0.559,0.252,0.227,south,9.9,No
2015/04/26,09:40,0.544,0.329,0.575,0.528,0.554,0.252,0.225,south,10.0,No
2015/04/26,09:50,0.540,0.332,0.572,0.536,0.561,0.252,0.227,south,10.4,No
2015/04/26,10:00,0.540,0.330,0.574,0.530,0.557,0.252,0.226,south,11.2,No
2015/04/26,10:10,0.547,0.330,0.569,0.532,0.557,0.253,0.226,south,11.0,No
2015/04/26,10:20,0.538,0.331,0.576,0.536,0.561,0.253,0.226,south,12.1,No
2015/04/26,10:30,0.539,0.327,0.572,0.529,0.557,0.253,0.225,south,12.0,No
2015/04/26,10:40,0.545,0.332,0.567,0.535,0.562,0.252,0.227,south,12.3,No
2015/04/26,10:50,0.539,0.331,0.573,0.535,0.560,0.253,0.225,south,12.0,No
2015/04/26,11:00,0.539,0.329,0.571,0.528,0.554,0.252,0.226,south,12.5,No
2015/04/26,11:10,0.546,0.333,0.567,0.534,0.564,0.251,0.227,south,12.6,No
2015/04/26,11:20,0.539,0.329,0.575,0.535,0.557,0.253,0.227,south,12.2,No
2015/04/26,11:30,0.539,0.331,0.575,0.531,0.556,0.253,0.227,south,13.4,No
2015/04/26,11:40,0.546,0.332,0.568,0.534,0.561,0.253,0.226,south,13.7,No
2015/04/26,11:50,0.542,0.329,0.573,0.536,0.555,0.253,0.227,south,13.0,No
2015/04/26,12:00,0.538,0.332,0.576,0.529,0.558,0.252,0.227,south,13.4,No
2015/04/26,12:10,0.546,0.332,0.572,0.536,0.562,0.253,0.226,south,14.7,No
2015/04/26,12:20,0.544,0.329,0.568,0.535,0.554,0.253,0.227,south,13.1,No
2015/04/26,12:30,0.538,0.332,0.571,0.531,0.554,0.252,0.226,south,12.1,No
2015/04/26,12:40,0.546,0.332,0.577,0.534,0.561,0.252,0.227,south,12.3,No
2015/04/26,12:50,0.544,0.329,0.571,0.535,0.556,0.252,0.226,south,11.2,No
2015/04/26,13:00,0.541,0.333,0.569,0.530,0.555,0.254,0.227,south,14.3,No
2015/04/26,13:10,0.550,0.331,0.575,0.535,0.559,0.253,0.228,south,12.7,No
2015/04/26,13:20,0.542,0.330,0.577,0.537,0.555,0.253,0.226,south,14.9,No
2015/04/26,13:30,0.543,0.334,0.572,0.531,0.559,0.253,0.227,south,14.0,No
2015/04/26,13:40,0.546,0.331,0.570,0.535,0.563,0.252,0.226,south,13.8,No
2015/04/26,13:50,0.540,0.332,0.576,0.539,0.556,0.253,0.226,south,13.3,No
2015/04/26,14:00,0.546,0.333,0.578,0.533,0.557,0.253,0.228,south,12.1,No
2015/04/26,14:10,0.544,0.331,0.573,0.537,0.563,0.252,0.227,south,12.4,No
2015/04/26,14:20,0.540,0.333,0.571,0.536,0.558,0.252,0.226,south,12.0,No
2015/04/26,14:30,0.548,0.334,0.577,0.532,0.558,0.252,0.228,south,11.9,No
2015/04/26,14:40,0.542,0.329,0.574,0.538,0.563,0.253,0.226,south,11.0,No
2015/04/26,14:50,0.542,0.333,0.570,0.533,0.555,0.253,0.228,south,12.0,No
2015/04/26,15:00,0.547,0.332,0.575,0.536,0.557,0.253,0.227,south,12.5,No
2015/04/26,15:10,0.542,0.330,0.576,0.537,0.560,0.253,0.226,south,12.9,No
2015/04/26,15:20,0.548,0.334,0.573,0.533,0.557,0.253,0.227,south,12.4,No
2015/04/26,15:30,0.545,0.330,0.575,0.537,0.555,0.253,0.227,south,12.5,No
2015/04/26,15:40,0.542,0.333,0.579,0.533,0.562,0.253,0.227,south-southwest,12.2,No
2015/04/26,15:50,0.548,0.334,0.572,0.538,0.556,0.252,0.226,south,12.0,No
2015/04/26,16:00,0.542,0.332,0.582,0.533,0.554,0.254,0.227,south-southwest,11.7,No
2015/04/26,16:10,0.547,0.335,0.577,0.538,0.562,0.254,0.228,south-southwest,11.0,No
2015/04/26,16:20,0.544,0.332,0.578,0.533,0.559,0.252,0.227,south-southwest,12.6,No
2015/04/26,16:30,0.544,0.335,0.578,0.535,0.554,0.254,0.227,south-southwest,9.8,No
2015/04/26,16:40,0.547,0.332,0.571,0.536,0.560,0.252,0.228,south-southwest,8.4,No
2015/04/26,16:50,0.542,0.334,0.581,0.534,0.562,0.253,0.228,south-southwest,12.1,No
2015/04/26,17:00,0.545,0.334,0.576,0.539,0.555,0.253,0.228,south-southwest,10.8,No
2015/04/26,17:10,0.546,0.332,0.577,0.532,0.561,0.253,0.227,south-southwest,9.7,No
2015/04/26,17:20,0.542,0.334,0.579,0.537,0.562,0.254,0.227,south-southwest,9.5,No
2015/04/26,17:30,0.547,0.332,0.574,0.534,0.555,0.252,0.227,south-southwest,9.3,No
2015/04/26,17:40,0.541,0.334,0.581,0.540,0.562,0.255,0.228,south-southwest,9.3,No
2015/04/26,17:50,0.548,0.330,0.572,0.536,0.560,0.253,0.227,south-southwest,9.3,No
2015/04/26,18:00,0.543,0.334,0.580,0.540,0.566,0.254,0.227,south-southwest,8.9,No
2015/04/26,18:10,0.546,0.333,0.573,0.535,0.561,0.253,0.227,south-southwest,10.1,No
2015/04/26,18:20,0.547,0.333,0.580,0.537,0.563,0.254,0.228,south-southwest,10.8,No
2015/04/26,18:30,0.545,0.331,0.575,0.538,0.562,0.254,0.227,south-southwest,9.8,No
2015/04/26,18:40,0.546,0.334,0.579,0.539,0.565,0.253,0.227,south-southwest,9.2,No
2015/04/26,18:50,0.545,0.332,0.577,0.537,0.558,0.255,0.228,south-southwest,10.4,No
2015/04/26,19:00,0.548,0.334,0.579,0.536,0.563,0.252,0.228,south-southwest,9.2,No
2015/04/26,19:10,0.541,0.331,0.575,0.535,0.559,0.255,0.229,south-southwest,10.6,No
2015/04/26,19:20,0.547,0.334,0.577,0.539,0.561,0.253,0.227,south-southwest,9.5,No
2015/04/26,19:30,0.544,0.331,0.578,0.535,0.558,0.255,0.227,south-southwest,8.6,No
2015/04/26,19:40,0.547,0.334,0.577,0.538,0.563,0.254,0.227,south-southwest,9.5,No
2015/04/26,19:50,0.543,0.332,0.577,0.535,0.558,0.254,0.227,south-southwest,9.7,No
2015/04/26,20:00,0.546,0.334,0.574,0.538,0.563,0.253,0.227,south-southwest,8.1,No
2015/04/26,20:10,0.542,0.332,0.577,0.535,0.556,0.254,0.228,south-southwest,9.8,No
2015/04/26,20:20,0.545,0.334,0.577,0.537,0.562,0.254,0.228,south-southwest,9.8,No
2015/04/26,20:30,0.545,0.334,0.577,0.534,0.558,0.254,0.227,south-southwest,10.1,No
2015/04/26,20:40,0.547,0.332,0.577,0.538,0.561,0.253,0.228,south-southwest,10.0,No
2015/04/26,20:50,0.542,0.333,0.577,0.533,0.560,0.255,0.228,south-southwest,7.9,No
2015/04/26,21:00,0.545,0.333,0.578,0.537,0.561,0.253,0.227,south-southwest,6.9,No
2015/04/26,21:10,0.543,0.333,0.576,0.535,0.555,0.254,0.229,south-southwest,7.9,No
2015/04/26,21:20,0.544,0.332,0.578,0.537,0.562,0.252,0.227,south-southwest,8.4,No
2015/04/26,21:30,0.545,0.333,0.577,0.533,0.560,0.254,0.227,south-southwest,8.1,No
2015/04/26,21:40,0.548,0.333,0.577,0.539,0.558,0.252,0.226,south-southwest,7.9,No
2015/04/26,21:50,0.544,0.332,0.576,0.536,0.562,0.254,0.226,south-southwest,7.4,No
2015/04/26,22:00,0.546,0.334,0.579,0.537,0.557,0.254,0.228,south-southwest,7.2,No
2015/04/26,22:10,0.544,0.332,0.576,0.538,0.562,0.254,0.227,south-southwest,7.5,No
2015/04/26,22:20,0.542,0.335,0.580,0.537,0.557,0.254,0.228,south-southwest,8.1,No
2015/04/26,22:30,0.545,0.332,0.575,0.538,0.561,0.252,0.227,south-southwest,8.3,No
2015/04/26,22:40,0.543,0.333,0.578,0.536,0.559,0.255,0.228,south-southwest,7.6,No
2015/04/26,22:50,0.548,0.333,0.576,0.539,0.560,0.253,0.227,south-southwest,7.0,No
2015/04/26,23:00,0.542,0.332,0.578,0.537,0.559,0.253,0.228,south-southwest,7.3,No
2015/04/26,23:10,0.546,0.333,0.575,0.539,0.559,0.253,0.228,south-southwest,5.6,No
2015/04/26,23:20,0.544,0.331,0.581,0.536,0.560,0.253,0.226,south-southwest,4.4,No
2015/04/26,23:30,0.547,0.333,0.575,0.538,0.556,0.252,0.227,south-southwest,4.2,No
2015/04/26,23:40,0.543,0.332,0.578,0.537,0.560,0.253,0.227,south-southwest,3.5,No
2015/04/26,23:50,0.544,0.333,0.575,0.536,0.556,0.253,0.229,south-southwest,3.4,No
